Tracking 28790 objects as of 19-Apr-2024
HD Live streaming from Space Station
objects crossing your sky now

STARLINK-2624

Track STARLINK-2624 now!
10-day predictions
STARLINK-2624 is classified as:


NORAD ID: 48358
Int'l Code: 2021-038F
Perigee: 553.4 km
Apogee: 555.5 km
Inclination: 53.1 °
Period: 95.6 minutes
Semi major axis: 6925 km
RCS: Unknown
Launch date: May 4, 2021
Source: United States (US)
Launch site: AIR FORCE EASTERN TEST RANGE (AFETR)
Your satellite tracking list
Your tracking list is empty




NASA's NSSDC Master Catalog

Two Line Element Set (TLE):
1 48358U 21038F   24109.50961889  .00001590  00000-0  12568-3 0  9994
2 48358  53.0530 219.9544 0001520  82.4937 277.6225 15.06375638162993
Source of the keplerian elements: AFSPC